Home   Weather   Lahore   Past weeks

Flag for Pakistan Past Weather in Lahore, Pakistan — Yesterday and Last 2 Weeks

Now
50 °F

Passing clouds.


Feels Like: 48 °F
Forecast: 44 / 62 °F
Wind: 5 mph from South

Location: Lahore Airport

Current Time: Jan 17, 2017 at 10:40:06 pm

Latest Report: Jan 17, 2017 at 9:55 pm


Visibility: 2 mi

Pressure: 30.12 "Hg

Humidity: 82%

Dew Point: 45 °F

Location of LahoreLocation

Past Weather in Lahore — Graph

°F

Lahore Temperature Yesterday

Maximum temperature yesterday: 57 °F (at 1:25 pm)
Minimum temperature yesterday: 45 °F (at 6:55 am)
Average temperature yesterday: 52 °F

High & Low Weather Summary for the Past Weeks

 TemperatureHumidityPressure
High70 °F (Jan 4, 1:25 pm)100% (Jan 5, 10:55 pm)30.21 "Hg (Jan 5, 10:55 pm)
Low36 °F (Jan 12, 6:55 am)22% (Jan 11, 3:25 pm)29.83 "Hg (Jan 6, 3:55 pm)
Average54 °F70%30.03 "Hg
* Reported Jan 2 9:25 pm — Jan 17 9:25 pm, Lahore, Weather by CustomWeather, © 2017

Note: Actual official high and low records may vary slightly from our data, if they occured in-between our weather recording intervals... More about our weather records

Advertising

Lahore Weather History for the Previous 24 Hours

Scroll right to see more
 ConditionsComfort  
Time TempWeatherWind HumidityBarometerVisibility
9:25 pm
Tue, Jan 17
50 °FPartly cloudy.3 mph88%30.12 "Hg2 mi
8:55 pm50 °FPartly cloudy.5 mph88%30.12 "Hg2 mi
8:25 pm52 °FPassing clouds.3 mph77%30.09 "Hg2 mi
7:55 pm52 °FPassing clouds.3 mph77%30.09 "Hg2 mi
6:55 pm54 °FPassing clouds.5 mph72%30.07 "Hg3 mi
6:25 pm54 °FPassing clouds.6 mph67%30.07 "Hg3 mi
4:55 pm57 °FScattered clouds.5 mph63%30.04 "Hg3 mi
4:25 pm57 °FScattered clouds.5 mph63%30.04 "Hg3 mi
3:55 pm57 °FScattered clouds.3 mph63%30.04 "Hg3 mi
2:55 pm57 °FScattered clouds.5 mph63%30.04 "Hg3 mi
2:25 pm57 °FScattered clouds.6 mph59%30.04 "Hg3 mi
1:55 pm57 °FScattered clouds.8 mph59%30.04 "Hg3 mi
1:25 pm57 °FScattered clouds.7 mph59%30.04 "Hg2 mi
12:55 pm57 °FScattered clouds.6 mph59%30.04 "Hg2 mi
12:25 pm57 °FSmoke.7 mph59%30.04 "Hg2 mi
11:55 am55 °FScattered clouds.7 mph67%30.07 "Hg2 mi
11:25 am55 °FSmoke.7 mph67%30.09 "Hg2 mi
10:55 am54 °FScattered clouds.7 mph72%30.09 "Hg2 mi
10:25 am54 °FScattered clouds.6 mph67%30.09 "Hg1 mi
9:55 am52 °FScattered clouds.3 mph72%30.09 "Hg1 mi
9:25 am50 °FCool.3 mph71%30.09 "Hg1 mi
8:55 am48 °FCool.3 mph76%30.09 "Hg1 mi
8:25 am45 °FQuite cool.No wind87%30.07 "Hg1 mi
7:55 am43 °FQuite cool.No wind87%30.07 "Hg1 mi
7:25 am41 °FQuite cool.No wind87%30.07 "Hg1 mi
6:55 am41 °FQuite cool.No wind87%30.07 "Hg1 mi
6:25 am41 °FQuite cool.3 mph87%30.04 "Hg1 mi
5:55 am41 °FQuite cool.No wind87%30.04 "Hg1 mi
5:25 am41 °FQuite cool.3 mph87%30.04 "Hg1 mi
4:55 am41 °FQuite cool.3 mph87%30.04 "Hg1 mi
4:25 am41 °FQuite cool.5 mph87%30.04 "Hg1 mi
3:55 am41 °FQuite cool.5 mph81%30.04 "Hg1 mi
3:25 am41 °FQuite cool.5 mph81%30.07 "Hg1 mi
2:55 am43 °FQuite cool.No wind81%30.07 "Hg1 mi
2:25 am43 °FFog.No wind81%30.07 "Hg1 mi
1:55 am45 °FFog.No wind81%30.07 "Hg1 mi
1:25 am45 °FFog.No wind81%30.07 "Hg1 mi
12:55 am46 °FFog.No wind82%30.07 "Hg2 mi
12:25 am46 °FPassing clouds.No wind82%30.07 "Hg2 mi
11:55 pm
Mon, Jan 16
46 °FPassing clouds.3 mph82%30.09 "Hg2 mi
11:25 pm48 °FPassing clouds.No wind82%30.09 "Hg2 mi
10:55 pm48 °FPassing clouds.3 mph82%30.09 "Hg2 mi
10:25 pm50 °FPassing clouds.No wind82%30.09 "Hg2 mi
Weather by CustomWeather, © 2017

See weather overviewHow to use our weather pages